GW6997 Weather Reports


time (UTC)temp
C
wind
direction
speed
KPH
gust
KPH
rain 1hr
cm
rain 24hr
cm
rain mn
cm
humidity
%
barometer
mb
20260507203028 23 156 0.0 0.0 0.18 0.23 0.23 97 1016.6
20260507201518 23 196 0.0 0.0 0.23 0.23 0.23 96 1016.6
20260507200031 23 196 0.0 0.0 0.23 0.23 0.23 95 1017.0
20260507194525 23 178 0.0 4.8 0.20 0.20 0.20 93 1016.9
20260507193043 24 62 3.2 9.7 0.05 0.05 0.05 92 1017.4
20260507191529 25 82 3.2 16.1 0.00 0.00 0.00 87 1017.3
20260507190024 26 142 8.0 24.1 0.00 0.00 0.00 85 1016.7
20260507184523 26 152 11.3 20.9 0.00 0.00 0.00 82 1016.6
20260507183036 27 157 9.7 22.5 0.00 0.00 0.00 81 1016.6
20260507181528 28 182 11.3 22.5 0.00 0.00 0.00 80 1017.1
20260507180026 28 202 8.0 25.7 0.00 0.00 0.00 80 1017.2
20260507174519 27 147 3.2 20.9 0.00 0.00 0.00 80 1017.6
20260507173024 27 105 9.7 24.1 0.00 0.00 0.00 81 1017.7
20260507171527 27 194 8.0 20.9 0.00 0.00 0.00 80 1017.9
20260507170030 27 209 11.3 27.4 0.00 0.00 0.00 81 1018.2
20260507164529 27 198 8.0 19.3 0.00 0.00 0.00 83 1018.4
20260507163023 27 162 6.4 16.1 0.00 0.00 0.00 80 1018.5
20260507161525 27 186 6.4 25.7 0.00 0.00 0.00 80 1018.8
20260507160040 27 168 14.5 25.7 0.00 0.00 0.00 81 1018.8
20260507154529 27 229 8.0 17.7 0.00 0.00 0.00 81 1018.9
20260507153022 27 142 8.0 22.5 0.00 0.00 0.00 82 1019.0
20260507151524 27 192 6.4 22.5 0.00 0.00 0.00 84 1019.1
20260507150008 26 121 8.0 24.1 0.00 0.00 0.00 83 1019.0
20260507144529 26 193 8.0 19.3 0.00 0.00 0.00 82 1019.1
20260507143017 26 211 3.2 6.4 0.00 0.00 0.00 81 1019.2
20260507141527 26 147 3.2 11.3 0.00 0.00 0.00 82 1019.2
20260507140027 26 182 1.6 11.3 0.00 0.00 0.00 83 1019.4
20260507134522 25 155 4.8 19.3 0.00 0.00 0.00 84 1019.5
20260507133014 26 136 3.2 11.3 0.00 0.00 0.00 84 1019.1
20260507131528 25 179 4.8 16.1 0.00 0.00 0.00 84 1019.0
20260507130032 25 226 3.2 14.5 0.00 0.00 0.00 85 1019.0
20260507124528 25 195 4.8 19.3 0.00 0.00 0.00 84 1018.9
20260507123017 25 191 4.8 12.9 0.00 0.00 0.00 85 1018.7
20260507121522 24 168 3.2 16.1 0.00 0.00 0.00 87 1018.4
20260507120022 24 265 1.6 19.3 0.00 0.00 0.00 87 1018.2
20260507114528 24 132 4.8 12.9 0.00 0.00 0.00 87 1018.0
20260507113029 23 182 1.6 12.9 0.00 0.00 0.00 87 1017.9
20260507111523 23 326 3.2 11.3 0.00 0.00 0.00 89 1017.9
20260507110025 23 336 3.2 14.5 0.00 0.00 0.00 88 1017.9
20260507104524 23 88 6.4 14.5 0.00 0.00 0.00 89 1017.8
20260507103027 23 281 0.0 11.3 0.00 0.00 0.00 89 1017.7
20260507101530 23 301 0.0 19.3 0.00 0.00 0.00 89 1017.4
20260507100018 22 231 0.0 19.3 0.00 0.00 0.00 89 1017.2
20260507094525 23 165 3.2 14.5 0.00 0.00 0.00 88 1017.0
20260507093034 22 290 3.2 8.0 0.00 0.00 0.00 88 1017.2
20260507091527 23 292 3.2 9.7 0.00 0.00 0.00 87 1017.2
20260507090028 23 10 1.6 12.9 0.00 0.00 0.00 87 1017.3
20260507084521 23 20 1.6 9.7 0.00 0.00 0.00 87 1017.2
20260507083028 23 59 1.6 12.9 0.00 0.00 0.00 86 1017.4
20260507081535 23 317 3.2 11.3 0.00 0.00 0.00 86 1017.2
20260507080027 23 46 0.0 16.1 0.00 0.00 0.00 86 1017.1
20260507074526 23 80 3.2 9.7 0.00 0.00 0.00 85 1017.1
20260507073024 23 45 4.8 14.5 0.00 0.00 0.00 86 1017.1
20260507071506 23 30 1.6 16.1 0.00 0.00 0.00 86 1017.4
20260507070014 23 58 3.2 14.5 0.00 0.00 0.00 85 1017.5
20260507064523 23 322 1.6 9.7 0.00 0.00 0.00 84 1017.7
20260507063024 23 56 1.6 12.9 0.00 0.00 0.00 84 1017.8
20260507061527 23 309 0.0 11.3 0.00 0.00 0.00 84 1018.0
20260507060011 23 317 0.0 14.5 0.00 0.00 0.00 84 1018.1
20260507054524 23 46 3.2 6.4 0.00 0.00 0.00 83 1018.4
20260507053020 23 279 0.0 11.3 0.00 0.00 0.00 81 1018.6
20260507051526 23 142 3.2 11.3 0.00 0.00 0.00 80 1018.7
20260507050034 24 126 0.0 6.4 0.00 0.00 0.00 78 1018.8
20260507044509 24 142 1.6 9.7 0.00 0.00 0.00 78 1019.0
20260507043003 24 84 0.0 8.0 0.00 0.00 0.00 78 1019.4
20260507041513 23 73 1.6 9.7 0.00 0.00 0.00 80 1019.5
20260507040008 23 360 1.6 9.7 0.00 0.00 0.00 81 1019.6
20260507034512 23 343 0.0 6.4 0.00 0.00 0.00 82 1019.8
20260507033012 23 75 1.6 9.7 0.00 0.00 0.00 82 1019.9
20260507031504 23 21 0.0 9.7 0.00 0.00 0.00 83 1019.9
20260507030004 23 17 0.0 12.9 0.00 0.00 0.00 83 1020.0
20260507024508 23 355 1.6 6.4 0.00 0.00 0.00 84 1020.0
20260507023009 23 126 1.6 6.4 0.00 0.00 0.00 84 1020.1
20260507021512 23 36 1.6 6.4 0.00 0.00 0.00 85 1020.0
20260507020004 23 317 0.0 1.6 0.00 0.00 0.00 86 1019.9
20260507014516 23 49 0.0 4.8 0.00 0.00 0.00 87 1019.8
20260507013029 23 82 0.0 3.2 0.00 0.00 0.00 89 1019.7
20260507011528 23 57 0.0 4.8 0.00 0.00 0.00 90 1019.5
20260507010013 23 75 0.0 4.8 0.00 0.00 0.00 90 1019.4
20260507004505 23 331 0.0 6.4 0.00 0.00 0.00 91 1019.4
20260507003010 23 330 0.0 4.8 0.00 0.00 0.00 91 1019.2
20260507001514 23 91 1.6 6.4 0.00 0.00 0.00 91 1019.1
20260507000023 23 332 0.0 0.0 0.00 0.00 0.00 91 1019.1
20260506234517 24 342 0.0 3.2 0.00 0.00 0.00 90 1018.9
20260506233006 23 171 0.0 1.6 0.00 0.00 0.00 90 1018.7
20260506231514 24 266 0.0 4.8 0.00 0.00 0.00 90 1018.6
20260506230018 24 121 0.0 6.4 0.00 0.00 0.00 90 1018.4
20260506224522 25 31 3.2 11.3 0.00 0.00 0.00 89 1018.3
20260506223020 25 239 0.0 9.7 0.00 0.00 0.00 88 1018.1
20260506221510 25 223 3.2 19.3 0.00 0.00 0.00 88 1017.9
20260506220016 25 205 1.6 17.7 0.00 0.00 0.00 87 1017.8
20260506214519 25 142 8.0 14.5 0.00 0.00 0.00 87 1017.7
20260506213021 25 106 4.8 19.3 0.00 0.00 0.00 84 1017.7
20260506211526 26 140 6.4 22.5 0.00 0.00 0.00 82 1017.5
20260506210015 26 119 8.0 25.7 0.00 0.00 0.00 80 1017.5
20260506204519 27 221 11.3 30.6 0.00 0.00 0.00 79 1017.3